{"data":{"norad_id":47380,"intl_designator":"2021-005AH","name":"STARLINK-2100","alt_names":[],"object_type":"PAYLOAD","status":"ACTIVE","operator":null,"country":"US","launch_date":"2021-01-20","launch_site_code":"AFETR","launch_vehicle":null,"mission":null,"orbit_class":"UNKNOWN","rcs_meters":null,"size_class":null,"mass_kg":null,"dimensions":null,"purposes":["comms"],"wikipedia_slug":null,"has_3d_model":false,"image_url":null,"decayed_at":null,"tle_current":{"epoch":"2026-05-25T03:03:43.421760Z","epoch_age_seconds":68047,"freshness":"FRESH","line1":"1 47380U 21005AH  26145.12758590  .00090907  00000+0  62539-3 0  9997","line2":"2 47380  53.0563  25.3364 0002902 210.3798 149.7053 15.73918880295311","mean_motion":15.7391888,"eccentricity":0.0002902,"inclination_deg":53.0563,"raan_deg":25.3364,"arg_perigee_deg":210.3798,"mean_anomaly_deg":149.7053,"bstar":0.00062539,"rev_number":29531,"period_min":91.491373430885,"perigee_km":345.75755420048,"apogee_km":349.66123544804,"semimajor_km":6725.8463948243,"source":"CELESTRAK","updated_at":"2026-05-25T13:38:16.548743Z"}}}